Date String (YYYY-MM-DD hh:mm:ss) UTC,Instrument flags,Ambient pressure (hPa),Sample flow (lpm),Bypass flow (lpm),Sample temperature (°C),Ambient temperature (°C),ASC tube jacket temperature (°C),LED temperature (°C),Box temperature (°C),Sample RH (%),Span deviation,Mass concentration (μg/m³),Mass concentration (μg/m³),Mass concentration (μg/m³)
DateTimeUTC,F1_M11,P_M11,Q1_M11,Q2_M11,T1_M11,T2_M11,T3_M11,T4_M11,T5_M11,U1_M11,ZSPAN_M11,X0_M11,X2_M11,X1_M11
2021-10-29 07:00:00,,0832.0,5.00,0.00,26.6,25.6,00.0,35.7,28.4,12.3,0000.0,0018.48,0004.49,0003.04
2021-10-29 07:01:00,,0832.1,5.00,0.00,26.6,25.6,00.0,35.7,28.4,12.3,0000.0,0018.30,0004.43,0003.00
2021-10-29 07:02:00,,0832.0,5.00,0.00,26.6,25.6,00.0,35.7,28.4,12.3,0000.0,0017.06,0004.36,0002.94
2021-10-29 07:03:00,,0832.0,5.00,0.00,26.6,25.6,00.0,35.7,28.4,12.3,0000.0,0017.77,0004.35,0002.88
2021-10-29 07:04:00,,0831.9,5.00,0.00,26.6,25.6,00.0,35.7,28.4,12.3,0000.0,0018.75,0004.30,0002.83
2021-10-29 07:05:00,,0832.0,4.99,0.00,26.6,25.6,00.0,35.7,28.4,12.3,0000.0,0018.78,0004.24,0002.80
2021-10-29 07:06:00,,0832.0,5.01,0.00,26.6,25.6,00.0,35.7,28.4,12.3,0000.0,0016.87,0004.21,0002.81
2021-10-29 07:07:00,,0832.0,4.99,0.00,26.6,25.6,00.0,35.7,28.4,12.4,0000.0,0015.17,0004.26,0002.84
2021-10-29 07:08:00,,0831.9,5.01,0.00,26.5,25.5,00.0,35.6,28.3,12.3,0000.0,0015.26,0004.27,0002.86
2021-10-29 07:09:00,,0831.9,5.00,0.00,26.5,25.5,00.0,35.6,28.3,12.4,0000.0,0014.81,0004.29,0002.88
2021-10-29 07:10:00,,0831.9,4.99,0.00,26.5,25.5,00.0,35.6,28.3,12.3,0000.0,0014.59,0004.27,0002.89
2021-10-29 07:11:00,,0831.8,5.00,0.00,26.5,25.5,00.0,35.6,28.3,12.3,0000.0,0016.17,0004.31,0002.90
2021-10-29 07:12:00,,0831.8,5.00,0.00,26.5,25.5,00.0,35.6,28.3,12.3,0000.0,0016.90,0004.40,0002.91
2021-10-29 07:13:00,,0831.7,5.01,0.00,26.5,25.5,00.0,35.6,28.3,12.3,0000.0,0017.76,0004.50,0002.93
2021-10-29 07:14:00,,0831.7,5.00,0.00,26.5,25.5,00.0,35.6,28.3,12.3,0000.0,0018.24,0004.52,0002.96
2021-10-29 07:15:00,,0831.8,5.00,0.00,26.5,25.5,00.0,35.6,28.3,12.3,0000.0,0017.26,0004.60,0003.00
2021-10-29 07:16:00,,0831.7,5.00,0.00,26.5,25.5,00.0,35.6,28.3,12.4,0000.0,0017.91,0004.72,0003.01
2021-10-29 07:17:00,,0831.7,4.99,0.00,26.5,25.5,00.0,35.6,28.3,12.4,0000.0,0019.54,0004.81,0003.02
2021-10-29 07:18:00,,0831.7,5.01,0.00,26.5,25.5,00.0,35.6,28.3,12.4,0000.0,0020.54,0004.85,0003.02
2021-10-29 07:19:00,,0831.7,4.99,0.00,26.5,25.5,00.0,35.6,28.3,12.4,0000.0,0020.81,0004.86,0003.01
2021-10-29 07:20:00,,0831.7,5.00,0.00,26.5,25.5,00.0,35.6,28.3,12.4,0000.0,0020.76,0004.89,0003.00
2021-10-29 07:21:00,,0831.8,5.00,0.00,26.5,25.5,00.0,35.5,28.2,12.3,0000.0,0020.65,0004.84,0002.99
2021-10-29 07:22:00,,0831.7,5.01,0.00,26.5,25.5,00.0,35.5,28.2,12.4,0000.0,0018.83,0004.78,0003.00
2021-10-29 07:23:00,,0831.7,5.00,0.00,26.4,25.5,00.0,35.5,28.2,12.3,0000.0,0017.62,0004.67,0002.99
2021-10-29 07:24:00,,0831.7,4.99,0.00,26.4,25.5,00.0,35.5,28.2,12.4,0000.0,0016.53,0004.58,0002.98
2021-10-29 07:25:00,,0831.7,5.01,0.00,26.4,25.5,00.0,35.5,28.3,12.4,0000.0,0016.09,0004.57,0002.95
2021-10-29 07:26:00,,0831.7,5.00,0.00,26.4,25.5,00.0,35.5,28.2,12.4,0000.0,0015.93,0004.56,0002.95
2021-10-29 07:27:00,,0831.7,4.99,0.00,26.4,25.5,00.0,35.5,28.2,12.4,0000.0,0015.07,0004.45,0002.95
2021-10-29 07:28:00,,0831.6,5.00,0.00,26.4,25.5,00.0,35.5,28.2,12.4,0000.0,0013.56,0004.36,0002.93
2021-10-29 07:29:00,,0831.7,5.00,0.00,26.4,25.4,00.0,35.5,28.2,12.4,0000.0,0012.50,0004.26,0002.91
2021-10-29 07:30:00,,0831.7,5.00,0.00,26.4,25.4,00.0,35.5,28.2,12.5,0000.0,0011.80,0004.20,0002.89
2021-10-29 07:31:00,,0831.6,5.00,0.00,26.4,25.4,00.0,35.5,28.2,12.5,0000.0,0011.63,0004.11,0002.87
2021-10-29 07:32:00,,0831.6,5.00,0.00,26.4,25.4,00.0,35.5,28.2,12.6,0000.0,0011.30,0004.08,0002.84
2021-10-29 07:33:00,,0831.6,4.99,0.00,26.4,25.4,00.0,35.5,28.2,12.7,0000.0,0011.32,0004.06,0002.80
2021-10-29 07:34:00,,0831.6,5.01,0.00,26.4,25.4,00.0,35.5,28.2,12.7,0000.0,0011.68,0004.04,0002.77
2021-10-29 07:35:00,,0831.6,5.00,0.00,26.4,25.4,00.0,35.5,28.2,12.7,0000.0,0011.50,0004.00,0002.75
2021-10-29 07:36:00,,0831.5,4.99,0.00,26.4,25.4,00.0,35.5,28.2,12.7,0000.0,0010.56,0003.95,0002.72
2021-10-29 07:37:00,,0831.5,5.00,0.00,26.4,25.4,00.0,35.5,28.2,12.7,0000.0,0010.31,0003.90,0002.69
2021-10-29 07:38:00,,0831.5,5.00,0.00,26.4,25.4,00.0,35.5,28.1,12.9,0000.0,0010.18,0003.80,0002.59
2021-10-29 07:39:00,,0831.5,4.99,0.00,26.4,25.4,00.0,35.4,28.1,13.1,0000.0,0009.57,0003.65,0002.46
2021-10-29 07:40:00,,0831.5,5.01,0.00,26.3,25.3,00.0,35.4,28.1,13.1,0000.0,0009.14,0003.48,0002.32
2021-10-29 07:41:00,,0831.5,5.00,0.00,26.3,25.3,00.0,35.4,28.1,13.2,0000.0,0008.77,0003.34,0002.20
2021-10-29 07:42:00,,0831.5,4.99,0.00,26.3,25.3,00.0,35.4,28.1,13.2,0000.0,0008.80,0003.22,0002.08
2021-10-29 07:43:00,,0831.4,5.01,0.00,26.3,25.3,00.0,35.4,28.1,13.2,0000.0,0008.50,0003.06,0001.96
2021-10-29 07:44:00,,0831.5,5.00,0.00,26.3,25.3,00.0,35.4,28.1,13.1,0000.0,0008.10,0002.77,0001.80
2021-10-29 07:45:00,,0831.5,5.01,0.00,26.3,25.3,00.0,35.4,28.1,13.1,0000.0,0007.34,0002.50,0001.64
2021-10-29 07:46:00,,0831.5,4.99,0.00,26.3,25.3,00.0,35.4,28.1,13.1,0000.0,0006.44,0002.24,0001.50
2021-10-29 07:47:00,,0831.5,5.01,0.00,26.2,25.3,00.0,35.4,28.0,13.0,0000.0,0005.44,0002.01,0001.39
2021-10-29 07:48:00,,0831.5,4.99,0.00,26.2,25.2,00.0,35.4,28.0,13.1,0000.0,0004.96,0001.76,0001.28
2021-10-29 07:49:00,,0831.5,4.99,0.00,26.2,25.2,00.0,35.4,27.9,13.1,0000.0,0004.64,0001.70,0001.26
2021-10-29 07:50:00,,0831.5,5.01,0.00,26.1,25.2,00.0,35.3,27.9,13.1,0000.0,0004.45,0001.68,0001.26
2021-10-29 07:51:00,,0831.6,5.00,0.00,26.1,25.1,00.0,35.3,27.9,13.0,0000.0,0006.42,0001.76,0001.31
2021-10-29 07:52:00,,0831.5,5.00,0.00,26.1,25.1,00.0,35.3,27.9,13.0,0000.0,0006.89,0001.89,0001.34
2021-10-29 07:53:00,,0831.5,5.00,0.00,26.1,25.1,00.0,35.3,27.9,13.1,0000.0,0006.14,0001.91,0001.32
2021-10-29 07:54:00,,0831.5,5.01,0.00,26.1,25.1,00.0,35.3,27.9,13.1,0000.0,0006.44,0001.97,0001.33
2021-10-29 07:55:00,,0831.5,4.99,0.00,26.1,25.1,00.0,35.2,27.9,13.1,0000.0,0006.97,0002.11,0001.40
2021-10-29 07:56:00,,0831.5,5.00,0.00,26.0,25.1,00.0,35.2,27.9,13.1,0000.0,0008.08,0002.33,0001.50
2021-10-29 07:57:00,,0831.5,5.01,0.00,26.0,25.1,00.0,35.2,27.9,13.1,0000.0,0008.67,0002.41,0001.59
2021-10-29 07:58:00,,0831.4,5.00,0.00,26.0,25.1,00.0,35.2,27.9,13.0,0000.0,0010.37,0002.62,0001.70
2021-10-29 07:59:00,,0831.4,5.01,0.00,26.0,25.1,00.0,35.2,27.8,13.0,0000.0,0010.67,0002.80,0001.81
